Location: Newark
(36.0797°N, 3.9744°E)
Time: 03:20:28
(UTC+00:00)

A-11 Canister half - All Passes

Search period start: 08 December 2019 00:00
Search period end: 18 December 2019 00:00
Orbit: 1526 x 1683 km, 47.3° (Epoch: 07 December)

Date Brightness Start Highest point End Pass type
(mag) Time Alt. Az. Time Alt. Az. Time Alt. Az.
08 Dec - 03:41:25 10° S 03:48:50 24° SE 03:56:17 10° ENE visible
08 Dec - 05:42:47 10° SW 05:52:54 79° SE 06:03:04 10° ENE visible
08 Dec - 07:48:55 10° W 07:58:45 51° NNW 08:08:31 10° ENE daylight
08 Dec - 09:56:10 10° WNW 10:05:48 46° N 10:15:13 10° E daylight
08 Dec - 12:02:01 10° NW 12:12:07 80° NNE 12:21:51 10° ESE daylight
08 Dec - 14:07:58 10° WNW 14:16:35 36° SW 14:24:58 10° SSE daylight
09 Dec - 03:20:09 10° S 03:27:15 22° SE 03:34:23 10° E visible
09 Dec - 05:21:10 10° SW 05:31:15 76° SE 05:41:23 10° ENE visible
09 Dec - 07:27:08 10° W 07:37:01 53° NNW 07:46:50 10° ENE daylight
09 Dec - 09:34:25 10° WNW 09:44:03 45° N 09:53:28 10° E daylight
09 Dec - 11:40:21 10° NW 11:50:27 77° NNE 12:00:12 10° ESE daylight
09 Dec - 13:46:12 10° WNW 13:55:00 38° SW 14:03:33 10° SSE daylight
10 Dec - 02:58:55 10° SSE 03:05:41 21° SE 03:12:29 10° E visible
10 Dec - 04:59:33 10° SW 05:09:35 73° SE 05:19:42 10° ENE visible
10 Dec - 07:05:23 10° W 07:15:17 54° NNW 07:25:09 10° ENE daylight
10 Dec - 09:12:40 10° WNW 09:22:18 45° N 09:31:44 10° ENE daylight
10 Dec - 11:18:40 10° NW 11:28:46 75° NNE 11:38:33 10° ESE daylight
10 Dec - 13:24:27 10° WNW 13:33:25 40° SW 13:42:08 10° SSE daylight
11 Dec - 02:37:43 10° SSE 02:44:06 19° ESE 02:50:30 10° E visible
11 Dec - 04:37:57 10° SW 04:47:56 70° SE 04:58:01 10° ENE visible
11 Dec - 06:43:37 10° W 06:53:33 55° NNW 07:03:27 10° ENE daylight
11 Dec - 08:50:56 10° WNW 09:00:33 45° N 09:10:00 10° ENE daylight
11 Dec - 10:56:58 10° NW 11:07:05 72° NNE 11:16:52 10° ESE daylight
11 Dec - 13:02:41 10° WNW 13:11:49 43° SW 13:20:41 10° SSE daylight
12 Dec - 02:16:34 10° SSE 02:22:31 18° ESE 02:28:30 10° E visible
12 Dec - 04:16:22 10° SW 04:26:17 67° SE 04:36:19 10° ENE visible
12 Dec - 06:21:53 10° W 06:31:49 56° NNW 06:41:46 10° ENE daylight
12 Dec - 08:29:10 10° WNW 08:38:47 44° N 08:48:15 10° ENE daylight
12 Dec - 10:35:17 10° NW 10:45:24 70° NNE 10:55:12 10° ESE daylight
12 Dec - 12:40:57 10° WNW 12:50:13 45° SW 12:59:13 10° SSE daylight
13 Dec - 01:55:29 10° SSE 02:00:57 16° ESE 02:06:26 10° E visible
13 Dec - 03:54:47 10° SW 04:04:38 64° SE 04:14:38 10° ENE visible
13 Dec - 06:00:08 10° W 06:10:06 58° NNW 06:20:05 10° ENE visible
13 Dec - 08:07:25 10° WNW 08:17:02 44° N 08:26:31 10° ENE daylight
13 Dec - 10:13:36 10° NW 10:23:42 68° NNE 10:33:31 10° ESE daylight
13 Dec - 12:19:13 10° WNW 12:28:37 48° SW 12:37:44 10° SSE daylight
14 Dec - 01:34:29 10° SSE 01:39:23 15° ESE 01:44:18 10° E visible
14 Dec - 03:33:13 10° SW 03:43:00 61° SE 03:52:57 10° ENE visible
14 Dec - 05:38:24 10° WSW 05:48:22 59° NNW 05:58:23 10° ENE visible
14 Dec - 07:45:40 10° WNW 07:55:16 44° N 08:04:46 10° ENE daylight
14 Dec - 09:51:53 10° NW 10:02:00 66° NNE 10:11:49 10° ESE daylight
14 Dec - 11:57:29 10° WNW 12:07:00 50° SW 12:16:15 10° SSE daylight
15 Dec - 01:13:35 10° SSE 01:17:49 13° ESE 01:22:04 10° E visible
15 Dec - 03:11:40 10° SSW 03:21:22 58° SE 03:31:14 10° ENE visible
15 Dec - 05:16:40 10° WSW 05:26:39 61° NNW 05:36:42 10° NE visible
15 Dec - 07:23:54 10° WNW 07:33:31 44° N 07:43:01 10° ENE daylight
15 Dec - 09:30:12 10° NW 09:40:18 64° NNE 09:50:07 10° ESE daylight
15 Dec - 11:35:46 10° WNW 11:45:24 53° SW 11:54:44 10° SSE daylight
15 Dec - 13:46:27 10° WSW 13:48:46 11° WSW 13:51:05 10° SW daylight
16 Dec - 00:52:52 10° SE 00:56:15 12° ESE 00:59:39 10° E visible
16 Dec - 02:50:08 10° SSW 02:59:44 55° SE 03:09:31 10° ENE visible
16 Dec - 04:54:55 10° WSW 05:04:55 63° NNW 05:15:02 10° NE visible
16 Dec - 07:02:09 10° WNW 07:11:45 44° N 07:21:17 10° ENE daylight
16 Dec - 09:08:31 10° NW 09:18:35 62° NNE 09:28:24 10° ESE daylight
16 Dec - 11:14:02 10° WNW 11:23:46 56° SW 11:33:13 10° SSE daylight
16 Dec - 13:23:45 10° W 13:27:13 12° WSW 13:30:40 10° SW daylight
17 Dec - 00:32:32 10° SE 00:34:41 11° ESE 00:36:52 10° ESE visible
17 Dec - 02:28:36 10° SSW 02:38:06 52° SE 02:47:48 10° ENE visible
17 Dec - 04:33:13 10° WSW 04:43:13 65° NNW 04:53:20 10° NE visible
17 Dec - 06:40:24 10° WNW 06:49:59 44° N 06:59:32 10° ENE daylight
17 Dec - 08:46:49 10° WNW 08:56:52 60° NNE 09:06:41 10° ESE daylight
17 Dec - 10:52:19 10° WNW 11:02:09 59° SW 11:11:41 10° SSE daylight
17 Dec - 13:01:22 10° W 13:05:40 14° WSW 13:09:56 10° SSW daylight
